Location: Joplin, MO
(37.0842°N, 94.5133°W)
Time: 21:46:01
(UTC+02:00)

Transit 2A Rocket - Pass Details

Date: 29 March 2023
Orbit: 584 x 914 km, 66.7° (Epoch: 06 June)

Event Time Altitude Azimuth Distance (km) Brightness Sun altitude
Rises 17:24:47 0° 178° (S) 3,168 8.5 37.2°
Reaches altitude 10° 17:27:18 10° 168° (SSE) 2,303 8.1 37.6°
Maximum altitude 17:31:55 31° 107° (ESE) 1,404 8.5 38.4°
Drops below altitude 10° 17:36:54 10° 48° (NE) 2,498 7.9 39.3°
Sets 17:39:43 0° 38° (NE) 3,479 8.5 39.7°
